Location: Korczew
(51.3586°N, 19.4491°E)
Time: 16:58:50
(UTC+00:00)

CZ-2C R/B - Pass Details

Date: 19 May 2025
Orbit: 631 x 693 km, 98.1° (Epoch: 21 June)

Event Time Altitude Azimuth Distance (km) Brightness Sun altitude
Rises 21:35:25 0° 15° (NNE) 2,942 8.1 -17.3°
Reaches altitude 10° 21:37:38 10° 17° (NNE) 2,027 7.1 -17.4°
Maximum altitude 21:42:02 78° 103° (ESE) 652 3.5 -17.6°
Enters shadow 21:43:54 34° 185° (S) 1,038 4.2 -17.7°
